K5GTX Weather Reports


time (UTC)temp
F
wind
direction
speed
knots
gust
knots
rain 1hr
in
rain 24hr
in
rain mn
in
humidity
%
barometer
mb
20260503192900 82 228 3.5 8.7 0.00 0.00 0.00 99 1024.9
20260503192356 82 140 0.0 7.8 0.00 0.00 0.00 99 1024.9
20260503191853 82 210 1.7 7.0 0.00 0.00 0.00 99 1025.2
20260503191350 80 219 2.6 10.4 0.00 0.00 0.00 99 1025.2
20260503190847 81 234 7.0 7.8 0.00 0.00 0.00 99 1025.1
20260503190344 81 135 1.7 7.0 0.00 0.00 0.00 99 1025.1
20260503185841 81 246 2.6 4.3 0.00 0.00 0.00 99 1025.1
20260503185337 80 258 3.5 11.3 0.00 0.00 0.00 99 1025.2
20260503184837 80 257 3.5 8.7 0.00 0.00 0.00 99 1025.5
20260503184333 79 249 4.3 8.7 0.00 0.00 0.00 99 1025.6
20260503183829 81 248 2.6 3.5 0.00 0.00 0.00 99 1025.7
20260503183326 80 217 1.7 14.8 0.00 0.00 0.00 99 1025.9
20260503182824 80 258 2.6 8.7 0.00 0.00 0.00 99 1026.1
20260503182323 80 196 0.0 4.3 0.00 0.00 0.00 99 1025.9
20260503181820 79 216 8.7 11.3 0.00 0.00 0.00 99 1026.1
20260503181317 79 202 1.7 8.7 0.00 0.00 0.00 99 1026.0
20260503180813 80 199 2.6 9.6 0.00 0.00 0.00 99 1026.0
20260503180311 81 152 0.0 3.5 0.00 0.00 0.00 99 1026.5
20260503175807 79 242 3.5 8.7 0.00 0.00 0.00 99 1026.5
20260503175306 80 216 0.0 11.3 0.00 0.00 0.00 99 1026.5
20260503174800 78 314 3.5 11.3 0.00 0.00 0.00 99 1026.7
20260503174259 79 227 2.6 12.2 0.00 0.00 0.00 99 1026.7
20260503173754 80 135 2.6 7.0 0.00 0.00 0.00 99 1026.8
20260503173250 79 246 3.5 7.8 0.00 0.00 0.00 99 1027.2
20260503172747 78 220 2.6 6.1 0.00 0.00 0.00 99 1027.2
20260503172244 78 232 3.5 13.0 0.00 0.00 0.00 99 1027.2
20260503171741 78 241 7.8 10.4 0.00 0.00 0.00 99 1026.9
20260503171238 77 236 3.5 9.6 0.00 0.00 0.00 99 1026.9
20260503170735 77 195 0.0 11.3 0.00 0.00 0.00 99 1027.2
20260503170232 77 242 5.2 9.6 0.00 0.00 0.00 99 1027.3
20260503160154 75 261 7.0 7.8 0.00 0.00 0.00 99 1027.7
20260503150624 73 243 1.7 9.6 0.00 0.00 0.00 99 1027.6
20260503150120 72 297 2.6 9.6 0.00 0.00 0.00 99 1027.6
20260503131014 60 4 0.0 0.0 0.00 0.00 0.00 99 1027.4
20260503130511 59 4 0.0 0.0 0.00 0.00 0.00 99 1027.5
20260503110401 52 0 0.0 0.0 0.00 0.00 0.00 99 1026.6
20260503090252 55 23 0.0 0.0 0.00 0.00 0.00 99 1026.4
20260503081220 55 90 0.0 0.0 0.00 0.00 0.00 99 1026.3
20260503080715 56 90 0.0 0.0 0.00 0.00 0.00 99 1026.6
20260503080213 56 270 0.0 0.0 0.00 0.00 0.00 99 1026.1
20260503072649 58 270 0.0 0.0 0.00 0.00 0.00 99 1026.4
20260503072146 58 270 0.0 0.0 0.00 0.00 0.00 99 1026.4
20260503071643 59 270 0.0 0.9 0.00 0.00 0.00 99 1026.6
20260503071139 59 279 0.0 0.0 0.00 0.00 0.00 99 1026.5
20260503070637 58 0 0.0 0.0 0.00 0.00 0.00 99 1026.7
20260503070135 59 255 0.0 0.0 0.00 0.00 0.00 99 1026.6
20260503055050 59 229 0.0 1.7 0.00 0.00 0.00 99 1026.6
20260503054546 59 66 0.0 0.0 0.00 0.00 0.00 99 1026.3
20260503054043 59 66 0.0 0.9 0.00 0.00 0.00 99 1026.5
20260503053541 58 105 0.0 0.9 0.00 0.00 0.00 99 1026.7
20260503053039 58 90 0.0 0.0 0.00 0.00 0.00 99 1026.6
20260503052535 58 90 0.0 0.0 0.00 0.00 0.00 99 1026.5
20260503052031 58 90 0.0 0.0 0.00 0.00 0.00 99 1026.5
20260503051527 59 90 0.0 0.0 0.00 0.00 0.00 99 1026.4
20260503051025 59 90 0.0 0.0 0.00 0.00 0.00 99 1026.5
20260503050520 59 90 0.0 0.0 0.00 0.00 0.00 99 1026.4
20260503050018 59 90 0.0 0.0 0.00 0.00 0.00 99 1026.3
20260503045515 59 90 0.0 0.0 0.00 0.00 0.00 99 1026.1
20260503045012 59 90 0.0 0.0 0.00 0.00 0.00 99 1026.3
20260503044509 59 90 0.0 0.0 0.00 0.00 0.00 99 1026.3
20260503044007 59 90 0.0 0.0 0.00 0.00 0.00 99 1026.3
20260503043503 59 90 0.0 0.0 0.00 0.00 0.00 99 1026.1
20260503042959 59 90 0.0 0.0 0.00 0.00 0.00 99 1026.1
20260503042456 59 90 0.0 0.0 0.00 0.00 0.00 99 1026.3
20260503041952 59 90 0.0 0.0 0.00 0.00 0.00 99 1026.2
20260503041449 60 90 0.0 0.0 0.00 0.00 0.00 99 1026.2
20260503040947 60 90 0.0 0.0 0.00 0.00 0.00 99 1026.4
20260503040444 60 90 0.0 0.0 0.00 0.00 0.00 99 1026.4
20260503035941 60 90 0.0 0.0 0.00 0.00 0.00 99 1026.4
20260503035438 61 90 0.0 0.0 0.00 0.00 0.00 99 1026.4
20260503034936 61 90 0.0 0.0 0.00 0.00 0.00 99 1026.3
20260503034433 61 90 0.0 0.0 0.00 0.00 0.00 99 1026.3
20260503033930 62 90 0.0 0.0 0.00 0.00 0.00 99 1026.4
20260503033427 62 90 0.0 0.0 0.00 0.00 0.00 99 1026.1
20260503032925 62 90 0.0 0.0 0.00 0.00 0.00 99 1026.2
20260503032424 63 90 0.0 0.0 0.00 0.00 0.00 99 1026.3
20260503031921 63 90 0.0 0.9 0.00 0.00 0.00 99 1026.3
20260503031418 63 203 0.0 0.0 0.00 0.00 0.00 99 1026.1
20260503030915 63 203 0.0 0.0 0.00 0.00 0.00 99 1026.0
20260503030411 63 157 0.0 0.9 0.00 0.00 0.00 99 1026.1
20260503025908 63 90 0.0 0.0 0.00 0.00 0.00 99 1025.9
20260503025405 63 105 0.0 0.9 0.00 0.00 0.00 99 1026.3
20260503024903 63 234 0.0 0.0 0.00 0.00 0.00 99 1025.8
20260503024359 63 234 0.0 0.0 0.00 0.00 0.00 99 1025.9
20260503023856 63 234 0.0 0.0 0.00 0.00 0.00 99 1025.9
20260503023353 64 234 0.0 0.0 0.00 0.00 0.00 99 1025.8
20260503022849 64 234 0.0 0.0 0.00 0.00 0.00 99 1025.9
20260503022344 64 234 0.0 0.0 0.00 0.00 0.00 99 1025.6
20260503021841 65 234 0.0 0.0 0.00 0.00 0.00 99 1025.7
20260503021337 65 234 0.0 0.0 0.00 0.00 0.00 99 1025.5
20260503020834 66 234 0.0 0.0 0.00 0.00 0.00 99 1025.5
20260503020332 66 234 0.0 0.0 0.00 0.00 0.00 99 1025.4
20260503015829 66 234 0.0 0.0 0.00 0.00 0.00 99 1025.5
20260503015326 67 234 0.0 0.0 0.00 0.00 0.00 99 1025.5
20260503014821 67 234 0.0 0.0 0.00 0.00 0.00 99 1025.5
20260503014319 67 234 0.0 0.0 0.00 0.00 0.00 99 1025.4
20260503013816 68 234 0.0 0.0 0.00 0.00 0.00 99 1025.4
20260503013314 68 234 0.0 0.0 0.00 0.00 0.00 99 1025.2
20260503012811 70 234 0.0 0.0 0.00 0.00 0.00 99 1025.4
20260503012308 71 234 0.0 0.0 0.00 0.00 0.00 99 1025.1
20260503011805 71 234 0.0 1.7 0.00 0.00 0.00 99 1025.1
20260503011302 72 270 0.0 0.0 0.00 0.00 0.00 99 1025.1
20260503010758 72 270 0.0 0.9 0.00 0.00 0.00 99 1025.2
20260503010255 73 255 0.0 1.7 0.00 0.00 0.00 99 1024.8
20260503005752 73 270 0.0 1.7 0.00 0.00 0.00 99 1025.0
20260503005250 74 270 0.0 2.6 0.00 0.00 0.00 99 1025.0
20260503004745 74 279 0.0 1.7 0.00 0.00 0.00 99 1024.9
20260503004244 75 311 2.6 3.5 0.00 0.00 0.00 99 1024.7
20260503003740 75 286 0.0 0.9 0.00 0.00 0.00 99 1024.9
20260503003238 76 270 0.0 2.6 0.00 0.00 0.00 99 1024.8
20260503002734 76 297 0.9 2.6 0.00 0.00 0.00 99 1024.8
20260503002231 76 263 2.6 3.5 0.00 0.00 0.00 99 1024.8
20260503001727 76 254 0.9 4.3 0.00 0.00 0.00 99 1024.8
20260503001224 76 291 2.6 5.2 0.00 0.00 0.00 99 1024.9
20260503000722 77 332 1.7 3.5 0.00 0.00 0.00 99 1024.9
20260503000219 77 290 1.7 3.5 0.00 0.00 0.00 99 1025.0
20260502235716 77 217 1.7 4.3 0.00 0.00 0.00 99 1024.8
20260502235214 78 351 2.6 3.5 0.00 0.00 0.00 99 1024.8
20260502234710 79 261 0.9 0.9 0.00 0.00 0.00 99 1024.5
20260502234207 77 281 2.6 6.1 0.00 0.00 0.00 99 1024.7
20260502233703 77 297 1.7 6.1 0.00 0.00 0.00 99 1024.7
20260502233200 78 294 0.0 2.6 0.00 0.00 0.00 99 1024.8
20260502232655 78 265 1.7 2.6 0.00 0.00 0.00 99 1025.1
20260502232153 77 259 1.7 4.3 0.00 0.00 0.00 99 1024.9
20260502231649 77 258 2.6 5.2 0.00 0.00 0.00 99 1025.0
20260502231147 76 260 5.2 5.2 0.00 0.00 0.00 99 1025.0
20260502230646 75 312 1.7 5.2 0.00 0.00 0.00 99 1025.1
20260502230144 77 288 4.3 7.0 0.00 0.00 0.00 99 1025.5
20260502225639 78 290 1.7 3.5 0.00 0.00 0.00 99 1025.0
20260502225137 77 236 2.6 4.3 0.00 0.00 0.00 99 1025.0
20260502224632 78 297 0.9 2.6 0.00 0.00 0.00 99 1025.1
20260502224129 78 261 0.0 2.6 0.00 0.00 0.00 99 1025.2
20260502223627 77 354 2.6 2.6 0.00 0.00 0.00 99 1025.2
20260502223125 77 74 1.7 4.3 0.00 0.00 0.00 99 1025.2
20260502222622 76 345 0.9 2.6 0.00 0.00 0.00 99 1025.4
20260502222119 75 78 0.0 4.3 0.00 0.00 0.00 99 1025.2
20260502221614 75 326 2.6 7.0 0.00 0.00 0.00 99 1025.5
20260502221112 76 12 2.6 5.2 0.00 0.00 0.00 99 1025.4
20260502220608 76 21 2.6 4.3 0.00 0.00 0.00 99 1025.7
20260502220104 76 51 7.0 7.0 0.00 0.00 0.00 99 1025.5
20260502215602 76 64 4.3 8.7 0.00 0.00 0.00 99 1025.6
20260502215059 77 15 0.9 6.1 0.00 0.00 0.00 99 1025.9
20260502214555 79 254 0.0 2.6 0.00 0.00 0.00 99 1025.6
20260502214053 77 270 2.6 4.3 0.00 0.00 0.00 99 1025.7
20260502213550 76 62 3.5 8.7 0.00 0.00 0.00 99 1025.8
20260502213047 77 68 0.0 5.2 0.00 0.00 0.00 99 1026.0
20260502212546 76 315 1.7 5.2 0.00 0.00 0.00 99 1025.9
20260502212044 76 297 4.3 9.6 0.00 0.00 0.00 99 1026.0
20260502211539 76 344 4.3 5.2 0.00 0.00 0.00 99 1026.0
20260502211036 76 29 3.5 6.1 0.00 0.00 0.00 99 1026.0
20260502210533 76 293 3.5 7.0 0.00 0.00 0.00 99 1026.1
20260502210030 76 63 4.3 5.2 0.00 0.00 0.00 99 1026.3
20260502205527 76 291 0.9 3.5 0.00 0.00 0.00 99 1026.3
20260502205024 76 283 1.7 4.3 0.00 0.00 0.00 99 1026.4
20260502204521 76 0 0.0 4.3 0.00 0.00 0.00 99 1026.5
20260502204019 76 353 2.6 4.3 0.00 0.00 0.00 99 1026.4
20260502203515 76 349 1.7 4.3 0.00 0.00 0.00 99 1026.4
20260502203012 75 261 5.2 7.8 0.00 0.00 0.00 99 1026.5
20260502202508 75 301 2.6 6.1 0.00 0.00 0.00 99 1026.7
20260502202007 74 285 4.3 7.0 0.00 0.00 0.00 99 1026.7
20260502201502 74 340 0.9 6.1 0.00 0.00 0.00 99 1026.6
20260502200959 75 300 1.7 2.6 0.00 0.00 0.00 99 1026.7
20260502200455 75 79 1.7 7.0 0.00 0.00 0.00 99 1026.8
20260502195953 75 150 1.7 2.6 0.00 0.00 0.00 99 1027.1
20260502195450 74 293 1.7 4.3 0.00 0.00 0.00 99 1027.0
20260502194946 74 290 3.5 6.1 0.00 0.00 0.00 99 1027.3
20260502194443 74 56 3.5 6.1 0.00 0.00 0.00 99 1026.9
20260502193939 74 0 0.9 10.4 0.00 0.00 0.00 99 1027.2
20260502193437 74 259 4.3 5.2 0.00 0.00 0.00 99 1027.2
20260502192932 75 255 2.6 4.3 0.00 0.00 0.00 99 1027.2